This demonstration page uses our WeatherBlox Daily Observations layout. Learn more.

41.55636, -103.73856

Hourly Observations for November 26, 2015

Temp ( °F °C ) Dew Point ( °F °C ) Humidity (%) Winds ( mph kmh ) Pressure ( in mb ) Visibility ( mi km ) Precip ( " mm )
12:10 am 00:10 Cloudy 21 -6 18 -8 86 86 NNE 14 22 30.39 1029 10 16.0934 0 0
12:53 am 00:53 Cloudy 21 -6.1 16 -8.9 81 81 NE 8 13 30.29 1026 10 16.0934 0 0
1:53 am 01:53 Cloudy 21 -6.1 16 -8.9 81 81 NNE 10 17 30.32 1027 10 16.0934 0 0
2:50 am 02:50 Cloudy with Light Snow 19 -7 16 -9 86 86 NNE 9 15 30.45 1031 5 8.0467 0 0
2:53 am 02:53 Cloudy with Light Snow 20 -6.7 16 -8.9 85 85 NE 10 17 30.32 1027 5 8.0467 0 0.0254
3:00 am 03:00 Cloudy with Light Snow 19 -7 16 -9 86 86 NNE 9 15 30.45 1031 6 9.65604 0 0
3:53 am 03:53 Cloudy 20 -6.7 16 -8.9 85 85 N 9 15 30.33 1027 10 16.0934 0 0.0254
4:53 am 04:53 Cloudy 19 -7.2 15 -9.4 84 84 NNE 9 15 30.35 1028 10 16.0934 0 0
5:39 am 05:39 Cloudy with Light Snow 19 -7.2 14 -10 81 81 NNE 7 11 30.5 1033 3 4.82802 0.01 0.254
5:53 am 05:53 Cloudy with Light Snow 19 -7.2 15 -9.4 84 84 NE 8 13 30.4 1029 4 6.43736 0.01 0.254
6:53 am 06:53 Cloudy with Light Snow 19 -7.2 13 -10.6 77 77 NNE 8 13 30.42 1030 5 8.0467 0 0.0254
7:24 am 07:24 Cloudy with Light Snow 18 -8 12 -11 79 79 N 9 15 30.56 1035 2.5 4.02335 0 0
7:43 am 07:43 Cloudy with Light Snow 18 -7.8 13 -10.6 81 81 NNE 12 19 30.56 1035 4 6.43736 0 0.0254
7:53 am 07:53 Cloudy with Light Snow 18 -7.8 12 -11.1 77 77 NNE 10 17 30.45 1031 4 6.43736 0 0.0254
8:48 am 08:48 Cloudy with Light Snow 19 -7 14 -10 79 79 NNE 8 13 30.56 1035 2 3.21868 0 0
8:53 am 08:53 Cloudy with Light Snow 19 -7.2 13 -10.6 77 77 NNE 12 19 30.46 1031 2 3.21868 0 0.0254
9:11 am 09:11 Cloudy with Light Snow 19 -7.2 13 -10.6 77 77 NNE 12 19 30.56 1035 3 4.82802 0 0.0254
9:22 am 09:22 Cloudy with Light Snow 18 -8 12 -11 79 79 N 10 17 30.59 1036 2 3.21868 0 0
9:38 am 09:38 Cloudy with Light Snow 19 -7 12 -11 73 73 NNE 12 19 30.56 1035 2.5 4.02335 0 0
9:51 am 09:51 Cloudy with Light Snow 19 -7 12 -11 73 73 NNE 10 17 30.59 1036 1.25 2.011675 0 0.0254
9:53 am 09:53 Cloudy with Light Snow 19 -7.2 13 -10.6 77 77 NNE 8 13 30.49 1032 1.25 2.011675 0 0.0254
10:53 am 10:53 Cloudy with Light Snow 20 -6.7 13 -10.6 74 74 NNE 7 11 30.51 1033 1.75 2.816345 0.01 0.254
11:00 am 11:00 Cloudy with Light Snow 19 -7 12 -11 73 73 NNE 5 7 30.59 1036 2.5 4.02335 0 0
11:27 am 11:27 Cloudy with Light Snow 20 -6.7 14 -10 78 78 NE 5 7 30.59 1036 1.25 2.011675 0 0.0254
11:40 am 11:40 Cloudy with Light Snow 21 -6 14 -10 74 74 NNE 10 17 30.59 1036 3 4.82802 0 0
11:53 am 11:53 Cloudy with Light Snow 21 -6.1 14 -10 74 74 NNE 8 13 30.49 1033 2 3.21868 0 0.0254
12:08 pm 12:08 Cloudy with Light Snow 21 -6 14 -10 74 74 NNE 8 13 30.59 1036 4 6.43736 0 0
12:30 pm 12:30 Cloudy with Light Snow 21 -6 14 -10 74 74 N 12 19 30.56 1035 1.75 2.816345 0 0
12:36 pm 12:36 Cloudy with Light Snow 21 -6.1 14 -10 74 74 N 10 17 30.56 1035 3 4.82802 0 0.0254
12:53 pm 12:53 Cloudy 21 -6.1 13 -10.6 71 71 NE 9 15 30.48 1032 7 11.26538 0 0.0254
1:53 pm 13:53 Cloudy 21 -6.1 13 -10.6 71 71 NNE 13 20 30.48 1032 10 16.0934 0 0.0254
2:53 pm 14:53 Cloudy 20 -6.7 13 -10.6 74 74 N 10 17 30.5 1033 10 16.0934 0 0
3:53 pm 15:53 Cloudy 20 -6.7 13 -10.6 74 74 NNE 8 13 30.53 1034 10 16.0934 0 0
4:53 pm 16:53 Cloudy 20 -6.7 13 -10.6 74 74 N 7 11 30.53 1034 10 16.0934 0 0
5:16 pm 17:16 Cloudy 19 -7 12 -11 73 73 NNE 6 9 30.59 1036 10 16.0934 0 0
5:53 pm 17:53 Cloudy 19 -7.2 13 -10.6 77 77 NE 6 9 30.55 1035 10 16.0934 0 0
6:53 pm 18:53 Cloudy 19 -7.2 14 -10 81 81 NNE 6 9 30.58 1036 10 16.0934 0 0
7:05 pm 19:05 Cloudy 20 -6.7 14 -10 78 78 NNE 8 13 30.65 1038 10 16.0934 0 0
7:53 pm 19:53 Cloudy 19 -7.2 13 -10.6 77 77 NNE 10 17 30.6 1036 10 16.0934 0 0
8:39 pm 20:39 Cloudy with Light Snow 19 -7.2 13 -10.6 77 77 N 9 15 30.68 1039 3 4.82802 0 0.0254
8:53 pm 20:53 Cloudy with Light Snow 19 -7.2 14 -10 81 81 N 9 15 30.62 1037 2 3.21868 0 0.0254
9:21 pm 21:21 Cloudy with Light Snow 18 -7.8 13 -10.6 81 81 N 5 7 30.71 1040 3 4.82802 0 0.0254
9:38 pm 21:38 Cloudy 18 -8 12 -11 79 79 N 5 7 30.71 1040 7 11.26538 0 0
9:53 pm 21:53 Cloudy 17 -8.3 13 -10.6 84 84 NNW 5 7 30.64 1038 8 12.87472 0 0.0254
10:26 pm 22:26 Cloudy with Light Snow 16 -9 12 -11 86 86 W 5 7 30.74 1041 5 8.0467 0 0
10:53 pm 22:53 Cloudy 16 -8.9 12 -11.1 84 84 WSW 7 11 30.66 1038 7 11.26538 0 0.0254
11:34 pm 23:34 Cloudy 14 -10 10 -12 85 85 WNW 5 7 30.77 1042 10 16.0934 0 0
11:53 pm 23:53 Cloudy 16 -8.9 12 -11.1 84 84 WNW 6 9 30.65 1038 10 16.0934 0 0

Powered by AerisWeather